Content
SEND FEEDBACK

Daily
Averages
Monthly
Summary
United States of America

OLGA, WASHINGTON


Home > North America > United States > Washington
Elevation: 8 feet     Latitude: 48 37N     Longitude: 122 48W

WEATHER
 
SELECT A DAY
Number of Records: 258,937;   Date Range: 5/15/97 - 9/29/14
 
SHARE

PRINT THIS DATA

[ ← Previous Day ]
WEATHER ALMANAC - JANUARY 31, 2013
[ Next Day → ]
[ °C ]   °F
Weather ElementAverageHighLow
Temperature45.1 °F46.4 °F (8:15 am)41 °F (3:55 am)
Dewpoint44.4 °F46.4 °F (8:15 am)41 °F (3:55 am)
Humidity97.2 %100 % (12:35 am)93 % (9:55 am)
Barometer30.30 in30.35 in (1:15 am)30.26 in (2:35 pm)
Wind Speed7.4 mph15 mph (11:15 am)
Wind Gust21.9 mph (11:35 am)
Weather ElementAverage
Visibility7.5 mi
Wind DirectionSSE (148.1 °)

Weather ElementTotal
Precipitation---
Heating Degree Days21.3 (Base 65)
Averaged from 69 records on January 31, 2013
WEATHER CONDITIONS BREAKOUT
WIND DIRECTION BREAKOUT
WEATHER BY HOUR - JANUARY 31, 2013
[ °C ]   °F
Local TimeTemperatureDewpointHumidityBarometerVisibilityWind DirectionWind SpeedGust SpeedPrecipitationEventsConditions
12:35 AM42.8 °F42.8 °F100 %30.34 in1.2 miCalmOvercast
12:55 AM42.8 °F42.8 °F100 %30.34 in1.0 miCalmRainLight Rain
1:15 AM42.8 °F42.8 °F100 %30.35 in1.5 miCalmRainLight Rain
1:35 AM42.8 °F42.8 °F100 %30.35 in0.8 miCalmOvercast
1:55 AM42.8 °F42.8 °F100 %30.34 in2.0 miNNW (340°)3.5 mphOvercast
2:15 AM42.8 °F42.8 °F100 %30.35 in2.0 miCalmRainLight Rain
2:35 AM42.8 °F42.8 °F100 %30.35 in3.0 miCalmOvercast
2:55 AM42.8 °F42.8 °F100 %30.35 in4.0 miCalmOvercast
3:15 AM42.8 °F42.8 °F100 %30.34 in2.5 miCalmOvercast
3:35 AM42.8 °F42.8 °F100 %30.34 in2.5 miCalmOvercast
3:55 AM41.0 °F41.0 °F100 %30.34 in1.8 miCalmOvercast
4:15 AM41.0 °F41.0 °F100 %30.34 in0.5 miCalmFogFog
4:55 AM41.0 °F41.0 °F100 %30.34 in0.2 miCalmFogFog
5:15 AM41.0 °F41.0 °F100 %30.33 in0.2 miCalmFogFog
5:35 AM42.8 °F42.8 °F100 %30.32 in8.0 miSSE (160°)4.6 mphMostly Cloudy
5:55 AM44.6 °F44.6 °F100 %30.31 in10.0 miSouth (190°)4.6 mphMostly Cloudy
6:15 AM44.6 °F44.6 °F100 %30.32 in10.0 miSouth (190°)8.1 mphScattered Clouds
6:35 AM44.6 °F44.6 °F100 %30.32 in10.0 miSSW (200°)10.4 mphPartly Cloudy
6:55 AM44.6 °F44.6 °F100 %30.32 in10.0 miSSW (200°)9.2 mphRainLight Rain
7:15 AM44.6 °F44.6 °F100 %30.30 in10.0 miSouth (190°)10.4 mphPartly Cloudy
7:35 AM44.6 °F44.6 °F100 %30.30 in10.0 miSouth (190°)12.7 mphMostly Cloudy
7:55 AM44.6 °F44.6 °F100 %30.30 in10.0 miSouth (190°)11.5 mphRainLight Rain
8:15 AM46.4 °F46.4 °F100 %30.31 in6.0 miSouth (190°)9.2 mphRainLight Rain
8:35 AM46.4 °F46.4 °F100 %30.31 in7.0 miSouth (180°)5.8 mphRainLight Rain
8:55 AM46.4 °F46.4 °F100 %30.30 in8.0 miSouth (190°)9.2 mphRainLight Rain
9:15 AM46.4 °F46.4 °F100 %30.30 in10.0 miSouth (170°)6.9 mphOvercast
9:35 AM46.4 °F46.4 °F100 %30.30 in10.0 miSouth (170°)6.9 mphOvercast
9:55 AM46.4 °F44.6 °F93 %30.30 in10.0 miSouth (170°)5.8 mphOvercast
10:15 AM46.4 °F44.6 °F93 %30.30 in10.0 miSouth (180°)5.8 mphOvercast
10:35 AM46.4 °F44.6 °F93 %30.30 in5.0 miSouth (170°)4.6 mphRainLight Rain
10:55 AM46.4 °F46.4 °F100 %30.29 in5.0 miSouth (180°)9.2 mphRainLight Rain
11:15 AM46.4 °F44.6 °F93 %30.29 in8.0 miSSW (200°)15.0 mphOvercast
11:35 AM46.4 °F44.6 °F93 %30.29 in10.0 miSouth (190°)12.7 mph21.9 mphOvercast
11:55 AM46.4 °F44.6 °F93 %30.28 in10.0 miSSW (200°)10.4 mphOvercast
12:15 PM46.4 °F44.6 °F93 %30.28 in10.0 miSouth (190°)12.7 mph18.4 mphOvercast
12:35 PM46.4 °F44.6 °F93 %30.28 in9.0 miSouth (190°)12.7 mph18.4 mphOvercast
12:55 PM46.4 °F44.6 °F93 %30.27 in7.0 miSouth (180°)9.2 mphRainLight Rain
1:15 PM46.4 °F44.6 °F93 %30.27 in3.0 miSouth (180°)13.8 mph18.4 mphRainLight Rain
1:35 PM46.4 °F44.6 °F93 %30.27 in1.2 miSSW (200°)10.4 mphRainLight Rain
1:55 PM46.4 °F46.4 °F100 %30.27 in2.0 miSouth (180°)11.5 mphRainLight Rain
2:15 PM46.4 °F46.4 °F100 %30.27 in7.0 miSW (230°)12.7 mph19.6 mphMostly Cloudy
2:35 PM46.4 °F46.4 °F100 %30.26 in9.0 miSSW (200°)12.7 mphMostly Cloudy
2:55 PM46.4 °F46.4 °F100 %30.26 in9.0 miSouth (190°)15.0 mph19.6 mphMostly Cloudy
3:15 PM46.4 °F46.4 °F100 %30.26 in9.0 miSSW (200°)11.5 mphOvercast
3:35 PM46.4 °F46.4 °F100 %30.26 in10.0 miSSW (200°)12.7 mphOvercast
3:55 PM46.4 °F46.4 °F100 %30.26 in10.0 miSSW (200°)13.8 mphOvercast
4:15 PM46.4 °F44.6 °F93 %30.26 in10.0 miSSW (200°)11.5 mphMostly Cloudy
4:35 PM46.4 °F44.6 °F93 %30.26 in10.0 miSSW (210°)11.5 mphMostly Cloudy
4:55 PM46.4 °F44.6 °F93 %30.26 in10.0 miSSW (200°)12.7 mph17.3 mphScattered Clouds
5:15 PM46.4 °F44.6 °F93 %30.26 in10.0 miSSW (200°)11.5 mphPartly Cloudy
5:35 PM46.4 °F44.6 °F93 %30.26 in10.0 miSSW (200°)12.7 mphPartly Cloudy
5:55 PM46.4 °F44.6 °F93 %30.26 in10.0 miSouth (190°)10.4 mphPartly Cloudy
6:15 PM46.4 °F44.6 °F93 %30.26 in10.0 miSSW (200°)12.7 mphPartly Cloudy
6:35 PM46.4 °F44.6 °F93 %30.26 in10.0 miSSW (200°)11.5 mph18.4 mphMostly Cloudy
6:55 PM46.4 °F44.6 °F93 %30.26 in10.0 miSouth (190°)10.4 mphMostly Cloudy
7:15 PM46.4 °F44.6 °F93 %30.27 in10.0 miSouth (180°)8.1 mphMostly Cloudy
7:35 PM46.4 °F44.6 °F93 %30.27 in10.0 miSouth (180°)9.2 mphMostly Cloudy
7:55 PM46.4 °F44.6 °F93 %30.27 in10.0 miSouth (180°)8.1 mphOvercast
8:15 PM46.4 °F44.6 °F93 %30.28 in10.0 miSouth (190°)8.1 mphOvercast
8:35 PM46.4 °F44.6 °F93 %30.28 in10.0 miSSW (200°)11.5 mphOvercast
8:55 PM46.4 °F44.6 °F93 %30.27 in10.0 miSSW (200°)11.5 mphOvercast
9:35 PM46.4 °F44.6 °F93 %30.29 in10.0 miSouth (180°)5.8 mphOvercast
9:55 PM44.6 °F44.6 °F100 %30.30 in10.0 miSouth (180°)3.5 mphScattered Clouds
10:15 PM44.6 °F42.8 °F93 %30.30 in10.0 miSSW (200°)3.5 mphMostly Cloudy
10:35 PM44.6 °F44.6 °F100 %30.30 in10.0 miCalmOvercast
10:55 PM44.6 °F44.6 °F100 %30.30 in10.0 miSouth (180°)3.5 mphOvercast
11:15 PM44.6 °F44.6 °F100 %30.30 in10.0 miNorthOvercast
11:35 PM44.6 °F44.6 °F100 %30.31 in10.0 miSouth (180°)3.5 mphOvercast
11:55 PM44.6 °F44.6 °F100 %30.32 in10.0 miCalmOvercast
Hourly data recorded from KORS, located miles away from Olga, Washington







STORIES FROM OUR PARTNERS